Flag for Cote d'Ivoire (Ivory Coast) Weather past 2 weeks in Abidjan, Cote d'Ivoire (Ivory Coast)

Now
88 °F

Passing clouds.


Feels Like: 102 °F
Forecast: N/A
Wind: 15 mph from Southwest

Location: Abidjan Airport

Current Time: Jan 25, 2015 at 2:32:54 PM

Latest Report: Jan 25, 2015 at 2:00 PM


Visibility: 5 mi

Pressure: 29.80 "Hg

Humidity: 75%

Dew point: 79 °F

Location of AbidjanLocation

Historic Weather in Abidjan — Graph

°F

Abidjan temperature yesterday

Maximum temperature yesterday: 88 °F (at 11:00 AM)
Minimum temperature yesterday: 79 °F (at 12:30 AM)
Average temperature yesterday: 83 °F

Past Weeks' High & Low Weather Summary

 TemperatureHumidityPressure
High90 °F (Jan 10, 1:00 PM)100% (Jan 11, 1:00 AM)30.04 "Hg (Jan 11, 1:00 AM)
Low68 °F (Jan 13, 1:30 AM)21% (Jan 13, 12:30 PM)29.77 "Hg (Jan 20, 2:30 PM)
Average81 °F77%29.88 "Hg
* Reported Jan 10 1:00 PM — Jan 25 1:30 PM, Abidjan, Weather by CustomWeather, © 2014

Note: Actual official high and low records may vary slightly from our data, if they occured in-between our weather recording intervals... More about our weather records

Advertising

Abidjan weather history for previous 24 hours

 ConditionsComfort  
Time TempWeatherWind HumidityBarometerVisibility
1:30 PM
Jan 25
88 °FScattered clouds.14 mph70%29.80 "Hg5 mi
1:00 PM88 °FScattered clouds.13 mph70%29.83 "Hg5 mi
12:30 PM88 °FScattered clouds.10 mph75%29.83 "Hg5 mi
12:00 PM88 °FScattered clouds.12 mph75%29.83 "Hg5 mi
11:30 AM88 °FScattered clouds.13 mph75%29.86 "Hg5 mi
11:00 AM86 °FScattered clouds.13 mph79%29.86 "Hg5 mi
10:30 AM86 °FScattered clouds.13 mph79%29.86 "Hg5 mi
10:00 AM86 °FPassing clouds.13 mph79%29.86 "Hg5 mi
9:30 AM86 °FPassing clouds.12 mph75%29.86 "Hg5 mi
9:00 AM84 °FPassing clouds.10 mph79%29.86 "Hg5 mi
8:30 AM84 °FScattered clouds.10 mph79%29.86 "Hg5 mi
8:00 AM82 °FScattered clouds.8 mph89%29.86 "Hg5 mi
7:30 AM82 °FScattered clouds.7 mph84%29.83 "Hg5 mi
7:00 AM82 °FScattered clouds.8 mph89%29.83 "Hg5 mi
6:30 AM81 °FPassing clouds.9 mph89%29.83 "Hg5 mi
6:00 AM81 °FPassing clouds.8 mph89%29.80 "Hg5 mi
5:30 AM81 °FPassing clouds.9 mph89%29.80 "Hg5 mi
5:00 AM81 °FPassing clouds.8 mph89%29.80 "Hg5 mi
4:30 AM81 °FPassing clouds.8 mph89%29.80 "Hg5 mi
3:30 AM82 °FPassing clouds.9 mph84%29.80 "Hg5 mi
3:00 AM82 °FPassing clouds.9 mph84%29.80 "Hg5 mi
2:30 AM82 °FPassing clouds.12 mph89%29.80 "HgN/A
2:00 AM82 °FPassing clouds.10 mph84%29.83 "HgN/A
1:30 AM81 °FPassing clouds.9 mph94%29.83 "HgN/A
1:00 AM81 °FPassing clouds.10 mph94%29.83 "HgN/A
12:30 AM82 °FClear.10 mph89%29.86 "Hg10 mi
12:00 AM82 °FPassing clouds.10 mph89%29.86 "HgN/A
11:30 PM
Jan 24
82 °FPassing clouds.9 mph89%29.86 "HgN/A
11:00 PM82 °FPassing clouds.9 mph89%29.86 "HgN/A
10:30 PM82 °FPassing clouds.8 mph89%29.86 "HgN/A
10:00 PM82 °FPassing clouds.8 mph89%29.86 "HgN/A
9:30 PM82 °FPassing clouds.7 mph84%29.86 "HgN/A
9:00 PM82 °FPassing clouds.9 mph89%29.86 "HgN/A
8:30 PM82 °FPassing clouds.9 mph89%29.83 "HgN/A
8:00 PM82 °FPassing clouds.8 mph89%29.83 "HgN/A
7:30 PM82 °FPassing clouds.8 mph89%29.83 "HgN/A
7:00 PM82 °FPassing clouds.8 mph89%29.83 "HgN/A
6:30 PM82 °FPassing clouds.9 mph89%29.80 "HgN/A
6:00 PM84 °FPassing clouds.10 mph84%29.80 "HgN/A
5:30 PM84 °FPassing clouds.13 mph84%29.77 "HgN/A
5:00 PM84 °FPassing clouds.14 mph84%29.77 "HgN/A
4:30 PM86 °FPassing clouds.13 mph79%29.77 "HgN/A
4:00 PM86 °FPassing clouds.14 mph75%29.77 "HgN/A
3:30 PM86 °FPassing clouds.14 mph75%29.77 "HgN/A
3:00 PM88 °FPassing clouds.14 mph70%29.80 "HgN/A
2:30 PM88 °FPassing clouds.13 mph62%29.80 "Hg5 mi
2:00 PM88 °FScattered clouds.12 mph62%29.80 "Hg5 mi
Weather by CustomWeather, © 2014

See weather overviewHow to use our weather pages